Starlink 33703

operational
NORAD ID: 63418 Int'l Des: 2025-065 Owner: SPXS Country: US Constellation: starlink
LEOCIRCULAR

About Starlink 33703

Description loading...

Live Position

Loading 3D Globe...

Upcoming Passes

Altitude History

Altitude vs Time

uPlot chart will show altitude changes over time

Two-Line Element Set

1 63418U 25065V 26102.53697110 .00011620 00000-0 43112-3 0 9997
2 63418 43.0006 276.1160 0001264 253.2009 106.8704 15.27581258 58018
Epoch: Apr 12, 2026 • Age: 16 hours

Current Status

Altitude 482.1 km
Velocity 7.63 km/s
Sub-Earth Point 10.63°N, 159.86°E
Launch Date Mar 31, 2025
Age 1 years
Type internet

Technical Details

Classification Payload
Mass 575.00 kg
Dry Mass 530.00 kg
Total Mass 575.00 kg
Length 0.30 m
Diameter 4.10 m
Span 29.00 m
Shape Box + pan
Manufacturer SPXS
Bus Type Starlink V2MO
Phase Status In Orbit
Owner/State SPXS/US

Large Constellations

Loading constellations...